Flag for Canada Weather past 2 weeks in Saskatoon, Saskatchewan, Canada

Now
32 °F

Light snow. Mostly cloudy.


Feels Like: 24 °F
Forecast: 31 / 48 °F
Wind: 10 mph from Northeast

Location: Saskatoon Weather Station


UV Index: 0 (Low)

Visibility: 6 mi


Pressure: 29.83 "Hg

Humidity: 100%

Dew point: 32 °F

Location of SaskatoonLocation

Historic Weather in Saskatoon

°F

Saskatoon temperature yesterday

Maximum temperature yesterday: 41 °F (at 2:00 PM)
Minimum temperature yesterday: 32 °F (at 9:00 PM)
Average temperature yesterday: 37 °F

Past Weeks' High & Low Weather Summary

 TemperatureHumidityPressure
High66 °F (Apr 22, 3:00 PM)100% (Apr 11, 5:00 AM)30.50 "Hg (Apr 11, 5:00 AM)
Low10 °F (Apr 14, 6:00 AM)30% (Apr 14, 4:00 PM)29.56 "Hg (Apr 23, 6:00 PM)
Average34 °F77%30.00 "Hg
* Reported Apr 10 1:00 AM — Apr 25 1:00 AM, Saskatoon, Weather by CustomWeather, © 2014

Note: Actual official high and low records may vary slightly from our data, if they occured in-between our weather recording intervals... More about our weather records

Advertising

Historic Weather Conditions — Data for Previous 24 hours

 ConditionsComfort  
Time TempWeatherWind HumidityBarometerVisibility
1:00 AM
Apr 25
32 °FLight snow. Mostly cloudy.10 mph100%29.83 "Hg6 mi
12:00 AM32 °FLight snow. Low clouds.10 mph100%29.83 "Hg6 mi
11:00 PM
Apr 24
32 °FLight snow. Low clouds.14 mph100%29.82 "Hg8 mi
10:49 PM32 °FLight snow. Low clouds.12 mph100%29.82 "Hg6 mi
10:00 PM32 °FLight snow. Fog.12 mph100%29.82 "Hg2 mi
9:45 PM32 °FLight snow. Fog.10 mph100%29.82 "Hg2 mi
9:00 PM32 °FDrizzle. Ice fog.12 mph100%29.81 "Hg2 mi
8:00 PM34 °FDrizzle. Fog.13 mph93%29.80 "Hg2 mi
7:00 PM36 °FDrizzle. Fog.16 mph93%29.78 "Hg4 mi
6:00 PM36 °FDrizzle. Fog.13 mph100%29.76 "Hg2 mi
5:00 PM37 °FLow clouds.14 mph93%29.74 "Hg15 mi
4:00 PM39 °FLow clouds.12 mph93%29.72 "Hg15 mi
3:00 PM39 °FLow clouds.15 mph93%29.70 "Hg15 mi
2:00 PM41 °FSprinkles. Overcast.8 mph87%29.68 "Hg15 mi
1:00 PM39 °FLight rain. Low clouds.8 mph93%29.67 "Hg10 mi
12:00 PM37 °FLight rain. Low clouds.12 mph100%29.67 "Hg10 mi
11:00 AM37 °FDrizzle. Low clouds.12 mph100%29.66 "Hg10 mi
10:00 AM37 °FLow clouds.12 mph93%29.64 "Hg15 mi
9:00 AM39 °FLow clouds.12 mph93%29.63 "Hg15 mi
8:00 AM39 °FOvercast.10 mph93%29.63 "Hg15 mi
7:00 AM39 °FLow clouds.10 mph93%29.62 "Hg15 mi
6:00 AM39 °FLow clouds.10 mph93%29.61 "Hg15 mi
5:00 AM37 °FMostly cloudy.8 mph100%29.60 "Hg12 mi
4:00 AM37 °FLight rain. Low clouds.7 mph100%29.59 "Hg10 mi
3:00 AM39 °FLight rain. Low clouds.10 mph93%29.58 "Hg10 mi
2:00 AM39 °FLight rain. Low clouds.15 mph93%29.58 "Hg12 mi
Weather by CustomWeather, © 2014

See weather overview